Weather History for Panama City, FL

Change the Weather History Date:

Thursday, March 7, 2013

  Actual Average Record
Temperature  
Mean Temperature 50 °F -  
Max Temperature 65 °F - 75 °F (2012)
Min Temperature 34 °F - 34 °F (2013)
Degree Days  
Heating Degree Days 15    
Cooling Degree Days 0    
Moisture  
Dew Point 34 °F    
Average Humidity 58    
Maximum Humidity 89    
Minimum Humidity 27    
Precipitation  
Precipitation 0.00 in - 0.00 in (2015)
Month to date precipitation  
Year to date precipitation  
Sea Level Pressure  
Sea Level Pressure 30.28 in    
Wind  
Wind Speed 5 mph (NW)    
Max Wind Speed 14 mph    
Max Gust Speed 17 mph    
Visibility 10 miles    
Events      
T = Trace of Precipitation, MM = Missing Value Source: NWS Daily Summary

Daily Weather History Graph

Daily Weather History Graph

Search for Another Location

Airport:

Trip Planner

Search our weather history database for the weather conditions in past years. The results will help you decide how hot, cold, wet, or windy it might be!

Date:

Astronomy

Mar. 07, 2013 Rise Set
Actual Time 7:02 AM EST 6:46 PM EST
Civil Twilight 6:38 AM EST 7:10 PM EST
Nautical Twilight 6:10 AM EST 7:38 PM EST
Astronomical Twilight 5:42 AM EST 8:06 PM EST
Moon 3:46 AM EST (3/7) 2:47 PM EST (3/7)
Length of Visible Light 12h 32m
Length of Day
11h 44m
Waning Crescent, 20% of the Moon is Illuminated
Mar 7
Waning Crescent
Mar 11
New
Mar 19
First Quarter
Mar 27
Full
Apr 3
Last Quarter

Hourly Weather History & Observations

Time (EST) Temp. Windchill Dew Point Humidity Pressure Visibility Wind Dir Wind Speed Gust Speed Precip Events Conditions
12:53 AM 39.0 °F 35.7 °F 32.0 °F 76% 30.27 in 10.0 mi NW 4.6 mph - N/A   Clear
1:53 AM 37.0 °F 34.5 °F 32.0 °F 82% 30.28 in 10.0 mi NW 3.5 mph - N/A   Clear
2:53 AM 36.0 °F 32.1 °F 32.0 °F 86% 30.27 in 10.0 mi NW 4.6 mph - N/A   Clear
3:53 AM 36.0 °F 32.1 °F 30.9 °F 82% 30.27 in 10.0 mi NNW 4.6 mph - N/A   Clear
4:53 AM 34.0 °F 31.0 °F 30.9 °F 89% 30.27 in 10.0 mi North 3.5 mph - N/A   Clear
5:53 AM 35.1 °F 31.0 °F 30.0 °F 82% 30.27 in 10.0 mi NNW 4.6 mph - N/A   Clear
6:53 AM 35.1 °F 32.2 °F 28.9 °F 78% 30.28 in 10.0 mi North 3.5 mph - N/A   Clear
7:53 AM 37.9 °F 34.4 °F 30.9 °F 76% 30.29 in 10.0 mi North 4.6 mph - N/A   Clear
8:53 AM 41.0 °F 35.2 °F 30.9 °F 67% 30.32 in 10.0 mi North 9.2 mph - N/A   Clear
9:53 AM 46.0 °F 39.9 °F 28.9 °F 51% 30.34 in 10.0 mi NNE 13.8 mph - N/A   Clear
10:53 AM 50.0 °F - 28.9 °F 44% 30.35 in 10.0 mi North 6.9 mph - N/A   Clear
11:53 AM 54.0 °F - 28.9 °F 38% 30.33 in 10.0 mi NW 8.1 mph - N/A   Clear
12:53 PM 57.9 °F - 28.0 °F 32% 30.30 in 10.0 mi NNE 6.9 mph - N/A   Clear
1:53 PM 61.0 °F - 30.0 °F 31% 30.27 in 10.0 mi Calm Calm - N/A   Clear
2:53 PM 63.0 °F - 28.9 °F 28% 30.25 in 10.0 mi Calm Calm - N/A   Clear
3:53 PM 64.9 °F - 30.0 °F 27% 30.24 in 6.0 mi NW 6.9 mph - N/A   Haze
4:53 PM 60.1 °F - 39.0 °F 46% 30.24 in 10.0 mi SSW 5.8 mph - N/A   Smoke
5:53 PM 57.0 °F - 41.0 °F 55% 30.25 in 10.0 mi SW 4.6 mph - N/A   Clear
6:53 PM 54.0 °F - 42.1 °F 64% 30.25 in 10.0 mi SSW 3.5 mph - N/A   Clear
7:53 PM 51.1 °F - 42.1 °F 71% 30.26 in 10.0 mi West 3.5 mph - N/A   Clear
8:53 PM 48.9 °F - 42.1 °F 77% 30.26 in 10.0 mi WNW 4.6 mph - N/A   Clear
9:53 PM 45.0 °F - 41.0 °F 86% 30.27 in 10.0 mi Calm Calm - N/A   Clear
10:53 PM 42.1 °F - 39.0 °F 89% 30.27 in 9.0 mi Calm Calm - N/A   Clear
11:53 PM 41.0 °F - 37.9 °F 89% 30.26 in 9.0 mi Calm Calm - N/A   Clear